Regional Weather Roundup
Issued by NWS Northern Indiana

Home | Current Version | Previous Version | Text Only | Print | Product List | Glossary Off
Versions: 1 2 3 4 5 6 7 8 9 10 11 12 13 14 15 16 17 18 19 20 21 22 23 24 25 26 27 28 29 30 31 32 33 34 35 36 37 38 39 40 41 42 43 44 45 46 47 48 49 50

000
ASUS43 KIWX 291200
RWRIWX

KIWX WEATHER ROUNDUP
NATIONAL WEATHER SERVICE NORTHERN INDIANA
800 AM EDT FRI MAY 29 2015

NOTE: "FAIR" INDICATES FEW OR NO CLOUDS BELOW 12,000 FEET WITH NO
SIGNIFICANT WEATHER AND/OR OBSTRUCTIONS TO VISIBILITY.

* THESE STATIONS ARE NOT UNDER NWS QUALITY CONTROL. THEY ALSO MAY NOT
  REPORT WEATHER SUCH AS PRECIPITATION OR FOG.

INZ001>027-291300-
NORTHERN INDIANA

CITY           SKY/WX    TMP DP  RH WIND       PRES   REMARKS
GARY*          PTSUNNY   70  66  88 SE7       30.04F
SOUTH BEND     PTSUNNY   69  62  78 SE8       30.08S
6HR MIN TEMP:  64; 6HR MAX TEMP:  70;

GOSHEN         PTSUNNY   66  61  84 SE8       30.09F HAZE
6HR MIN TEMP:  60; 6HR MAX TEMP:  67;

MONTICELLO*    CLOUDY    67  65  93 SE3       30.07S
6HR MIN TEMP:  65; 6HR MAX TEMP:  71;

WARSAW*        PTSUNNY   64  63  94 CALM      30.10S FOG
ANGOLA*        SUNNY     64  55  72 SE5       30.12S
FORT WAYNE     PTSUNNY   66  63  90 SE8       30.13S
6HR MIN TEMP:  60; 6HR MAX TEMP:  66;

PERU/GRISSOM   PTSUNNY   67  64  90 SE8       30.08F
6HR MIN TEMP:  64; 6HR MAX TEMP:  68;


$$
INZ028>050-291300-
CENTRAL INDIANA

CITY           SKY/WX    TMP DP  RH WIND       PRES   REMARKS
LAFAYETTE      CLOUDY    68  63  84 CALM      30.08R
6HR MIN TEMP:  63; 6HR MAX TEMP:  70;

KOKOMO*        PTSUNNY   66  63  88 S9        30.10S
6HR MIN TEMP:  63; 6HR MAX TEMP:  68;

MUNCIE*        PTSUNNY   69  64  84 SE6       30.14R
6HR MIN TEMP:  64; 6HR MAX TEMP:  70;

INDIANAPOLIS   CLOUDY    67  63  87 SE8       30.09S
6HR MIN TEMP:  65; 6HR MAX TEMP:  69;


$$
MIZ043>046-050>051-056>058-064>065-071>073-077>080-291300-
SOUTHWEST LOWER MICHIGAN

CITY           SKY/WX    TMP DP  RH WIND       PRES   REMARKS
BATTLE CREEK   PTSUNNY   66  59  78 SE5       30.12S
6HR MIN TEMP:  62; 6HR MAX TEMP:  67;

BENTON HARBOR  PTSUNNY   66  61  84 SE7       30.06S
6HR MIN TEMP:  63; 6HR MAX TEMP:  68;

COLDWATER*     PTSUNNY   64  59  82 SE5       30.12S
6HR MIN TEMP:  60; 6HR MAX TEMP:  64;

HILLSDALE*     MOSUNNY   65  61  87 SE7       30.13S
6HR MIN TEMP:  61; 6HR MAX TEMP:  65;

HOLLAND        CLOUDY    66  59  78 SE6       30.07S
6HR MIN TEMP:  64; 6HR MAX TEMP:  67;

GRAND RAPIDS   CLOUDY    65  57  75 SE9       30.08F
6HR MIN TEMP:  62; 6HR MAX TEMP:  65;

KALAMAZOO      PTSUNNY   66  58  75 VRB5      30.10F
6HR MIN TEMP:  63; 6HR MAX TEMP:  67;

STURGIS*       PTSUNNY   64  61  88 SE5       30.10S
THREE RIVERS*  FAIR      66  61  84 SE5       30.10F
6HR MIN TEMP:  61; 6HR MAX TEMP:  67;


$$
OHZ001>008-015>018-024>025-291300-
NORTHWEST OHIO

CITY           SKY/WX    TMP DP  RH WIND       PRES   REMARKS
DEFIANCE       MOSUNNY   69  63  81 SE5       30.13F
6HR MIN TEMP:  60; 6HR MAX TEMP:  69;

FINDLAY        CLOUDY    68  61  78 SE9       30.15R
6HR MIN TEMP:  66; 6HR MAX TEMP:  68;

TOLEDO EXPRESS PTSUNNY   66  60  81 SE5       30.14S
6HR MIN TEMP:  59; 6HR MAX TEMP:  66;

TOLEDO METCALF CLOUDY    67  59  75 SE6       30.15F
6HR MIN TEMP:  61; 6HR MAX TEMP:  67;

LIMA           CLOUDY    68  65  90 S3        30.15S FOG
6HR MIN TEMP:  64; 6HR MAX TEMP:  70; 6HR PCP:  0.01;


$$
AND FOR LAKE MICHIGAN COASTAL AND OPEN LAKE BUOY OBSERVATIONS

STATION/POSITION TEMP    WIND        PRES    VSBY  WAVE
                 AIR SEA DIR/SP/G                  HT/PER
                 (F)     (DEG/KT/KT) (MB)    (MI)  (FT/S)
CALUMET HARBOR    70     180/  6/ 11   N/A
MICHIGAN CITY     69     130/ 10/ 13   N/A
BURNS HARBOR      70     160/ 10/ 14 1017.9R
SAINT JOSEPH      67     150/  1/  6 1018.3R
SOUTH LAKE BUOY   47 38  160/ 10/ 12 1017.7R         1
4 MI NW BRIDGMAN  64 57  180/ 12/ 16   N/A           1
MICHIGAN CITY     63 55  170/ 10/ 10   N/A           1

$$
&&



USA.gov is the U.S. government's official web portal to all federal, state and local government web resources and services.